Voltar ao catálogo

STARLINK-1039

AtivoComunicaçõesVLEO
NORAD 44744·PAYLOAD·🇺🇸 United States

Lançado Nov 11, 2019 de Cape Canaveral Space Force Station

Loading…

Próximas Passagens (próximas 24 horas)

TLE

AtualizadoSource: CelesTrak SupGP

Época: Sep 14, 2026, 20:11 UTC

1 44744C 19074AH  26257.84145833  .00071861  00000+0  20814-2 0  2578
2 44744  53.0560  56.3354 0001841  70.6433 100.0188 15.34974376    15

Acompanhe STARLINK-1039 em tempo real com AllMySat

Download on the App Store